When you browse on this site, cookies collect data to enhance your experience and personalize the content and advertising you see.
Visit our Privacy Policy to learn more. By continuing to use the site, you agree to this use of cookies and data.
  • In United Kingdom
  • List of Countries
  • For 7 days
  • Water Temperature
  • Satellite Maps
  • Weather Map
  • Weather Widgets
  • user-avatar
    Login

    Hourly Weather Heredia

    Today, 20 January, Sunday

    Time Temperature Precipitation Wind Pressure Humidity
    00:00 +18°C° 0 mm 1 mps 662 mmHg 83%
    01:00 +18°C° 0 mm 1 mps 661 mmHg 80%
    02:00 +17°C° 0 mm 2 mps 661 mmHg 77%
    03:00 +16°C° 0 mm 2 mps 661 mmHg 74%
    04:00 +16°C° 0 mm 2 mps 661 mmHg 75%
    05:00 +16°C° 0 mm 2 mps 661 mmHg 76%
    06:00 +16°C° 0 mm 2 mps 662 mmHg 77%
    07:00 +19°C° 0 mm 2 mps 663 mmHg 71%
    08:00 +21°C° 0 mm 2 mps 664 mmHg 64%
    09:00 +25°C° 0 mm 3 mps 665 mmHg 58%
    10:00 +26°C° 0 mm 3 mps 665 mmHg 54%
    11:00 +27°C° 0 mm 3 mps 665 mmHg 51%
    12:00 +28°C° 0 mm 3 mps 665 mmHg 47%
    13:00 +27°C° 0.1 mm 3 mps 664 mmHg 52%
    14:00 +27°C° 0.1 mm 3 mps 664 mmHg 56%
    15:00 +26°C° 0.1 mm 3 mps 663 mmHg 61%
    16:00 +24°C° 0 mm 3 mps 663 mmHg 68%
    17:00 +21°C° 0 mm 3 mps 663 mmHg 74%
    18:00 +19°C° 0 mm 2 mps 662 mmHg 81%
    19:00 +19°C° 0 mm 3 mps 663 mmHg 81%
    20:00 +19°C° 0 mm 3 mps 663 mmHg 81%
    21:00 +18°C° 0 mm 3 mps 663 mmHg 81%
    22:00 +18°C° 0 mm 3 mps 663 mmHg 81%
    23:00 +18°C° 0 mm 3 mps 663 mmHg 81%

    Tomorrow, 21 January, Monday

    Time Temperature Precipitation Wind Pressure Humidity
    00:00 +18°C° 0 mm 3 mps 663 mmHg 81%
    01:00 +18°C° 0 mm 3 mps 663 mmHg 81%
    02:00 +18°C° 0 mm 3 mps 663 mmHg 82%
    03:00 +18°C° 0 mm 3 mps 662 mmHg 82%
    04:00 +18°C° 0 mm 3 mps 662 mmHg 82%
    05:00 +18°C° 0 mm 3 mps 662 mmHg 81%
    06:00 +18°C° 0 mm 3 mps 663 mmHg 80%
    07:00 +19°C° 0 mm 4 mps 663 mmHg 73%
    08:00 +21°C° 0 mm 4 mps 664 mmHg 65%
    09:00 +22°C° 0 mm 4 mps 665 mmHg 57%
    10:00 +25°C° 0 mm 4 mps 665 mmHg 52%
    11:00 +26°C° 0 mm 4 mps 665 mmHg 47%
    12:00 +27°C° 0 mm 4 mps 665 mmHg 41%
    13:00 +27°C° 0 mm 4 mps 665 mmHg 44%
    14:00 +27°C° 0 mm 4 mps 664 mmHg 47%
    15:00 +26°C° 0 mm 3 mps 663 mmHg 50%
    16:00 +24°C° 0 mm 3 mps 663 mmHg 60%
    17:00 +21°C° 0 mm 3 mps 663 mmHg 70%
    18:00 +19°C° 0 mm 3 mps 662 mmHg 80%
    19:00 +18°C° 0 mm 3 mps 663 mmHg 80%
    20:00 +18°C° 0 mm 3 mps 663 mmHg 79%
    21:00 +18°C° 0 mm 3 mps 663 mmHg 79%
    22:00 +18°C° 0 mm 3 mps 663 mmHg 79%
    23:00 +18°C° 0 mm 3 mps 663 mmHg 79%

    Day after tomorrow, 22 January, Tuesday

    Time Temperature Precipitation Wind Pressure Humidity
    00:00 +18°C° 0 mm 3 mps 663 mmHg 79%
    01:00 +18°C° 0 mm 3 mps 662 mmHg 80%
    02:00 +18°C° 0 mm 3 mps 662 mmHg 80%
    03:00 +17°C° 0 mm 3 mps 661 mmHg 81%
    04:00 +17°C° 0 mm 3 mps 662 mmHg 81%
    05:00 +17°C° 0 mm 3 mps 662 mmHg 81%
    06:00 +17°C° 0 mm 3 mps 662 mmHg 81%
    07:00 +19°C° 0 mm 3 mps 663 mmHg 74%
    08:00 +21°C° 0 mm 3 mps 664 mmHg 67%
    09:00 +24°C° 0 mm 3 mps 665 mmHg 61%
    10:00 +25°C° 0 mm 3 mps 665 mmHg 54%
    11:00 +27°C° 0 mm 3 mps 665 mmHg 48%
    12:00 +29°C° 0 mm 3 mps 665 mmHg 42%
    13:00 +28°C° 0 mm 3 mps 664 mmHg 44%
    14:00 +28°C° 0 mm 3 mps 663 mmHg 47%
    15:00 +27°C° 0 mm 3 mps 662 mmHg 50%
    16:00 +25°C° 0 mm 2 mps 662 mmHg 60%
    17:00 +23°C° 0 mm 2 mps 662 mmHg 71%
    18:00 +19°C° 0 mm 2 mps 661 mmHg 82%
    19:00 +19°C° 0 mm 2 mps 662 mmHg 81%
    20:00 +18°C° 0 mm 2 mps 662 mmHg 79%
    21:00 +18°C° 0 mm 2 mps 662 mmHg 78%
    22:00 +17°C° 0 mm 2 mps 662 mmHg 76%
    23:00 +17°C° 0 mm 2 mps 662 mmHg 74%

    23 January, Wednesday

    Time Temperature Precipitation Wind Pressure Humidity
    00:00 +17°C° 0 mm 2 mps 662 mmHg 72%
    01:00 +17°C° 0 mm 2 mps 662 mmHg 74%
    02:00 +17°C° 0 mm 2 mps 661 mmHg 76%
    03:00 +17°C° 0 mm 2 mps 661 mmHg 78%
    04:00 +17°C° 0 mm 2 mps 661 mmHg 79%
    05:00 +17°C° 0 mm 2 mps 661 mmHg 81%
    06:00 +17°C° 0 mm 2 mps 662 mmHg 82%
    07:00 +19°C° 0 mm 2 mps 663 mmHg 75%
    08:00 +23°C° 0 mm 2 mps 663 mmHg 68%
    09:00 +25°C° 0 mm 2 mps 664 mmHg 61%
    10:00 +26°C° 0 mm 2 mps 664 mmHg 58%
    11:00 +27°C° 0 mm 2 mps 664 mmHg 55%
    12:00 +29°C° 0 mm 2 mps 664 mmHg 52%
    13:00 +27°C° 0.1 mm 2 mps 663 mmHg 59%
    14:00 +26°C° 0.1 mm 2 mps 662 mmHg 65%
    15:00 +24°C° 0.1 mm 2 mps 661 mmHg 72%
    16:00 +23°C° 0 mm 1 mps 661 mmHg 78%
    17:00 +22°C° 0 mm 1 mps 661 mmHg 83%
    18:00 +21°C° 0 mm 1 mps 661 mmHg 89%
    19:00 +20°C° 0 mm 1 mps 661 mmHg 89%
    20:00 +19°C° 0 mm 2 mps 662 mmHg 89%
    21:00 +19°C° 0 mm 2 mps 662 mmHg 89%
    22:00 +18°C° 0 mm 2 mps 662 mmHg 88%
    23:00 +19°C° 0 mm 1 mps 661 mmHg 88%

    24 January, Thursday

    Time Temperature Precipitation Wind Pressure Humidity
    00:00 +19°C° 0 mm 1 mps 661 mmHg 87%
    01:00 +19°C° 0 mm 1 mps 661 mmHg 87%
    02:00 +18°C° 0 mm 1 mps 660 mmHg 87%
    03:00 +18°C° 0 mm 1 mps 660 mmHg 87%
    04:00 +18°C° 0 mm 1 mps 660 mmHg 87%
    05:00 +18°C° 0 mm 1 mps 661 mmHg 87%
    06:00 +18°C° 0 mm 1 mps 661 mmHg 87%
    07:00 +21°C° 0 mm 1 mps 662 mmHg 79%
    08:00 +23°C° 0 mm 1 mps 663 mmHg 71%
    09:00 +26°C° 0 mm 1 mps 665 mmHg 63%
    10:00 +26°C° 0.1 mm 1 mps 664 mmHg 63%
    11:00 +26°C° 0.1 mm 1 mps 664 mmHg 63%
    12:00 +27°C° 0.1 mm 1 mps 664 mmHg 64%
    13:00 +25°C° 0.2 mm 1 mps 663 mmHg 70%
    14:00 +24°C° 0.2 mm 1 mps 662 mmHg 76%
    15:00 +23°C° 0.2 mm 1 mps 661 mmHg 83%
    16:00 +22°C° 0.2 mm 1 mps 661 mmHg 86%
    17:00 +22°C° 0.2 mm 1 mps 661 mmHg 90%
    18:00 +21°C° 0.2 mm 1 mps 661 mmHg 94%
    19:00 +21°C° 0.1 mm 1 mps 662 mmHg 93%
    20:00 +21°C° 0.1 mm 1 mps 662 mmHg 92%
    21:00 +20°C° 0.1 mm 2 mps 663 mmHg 91%
    22:00 +19°C° 0 mm 2 mps 663 mmHg 91%
    23:00 +19°C° 0 mm 2 mps 662 mmHg 91%

    25 January, Friday

    Time Temperature Precipitation Wind Pressure Humidity
    00:00 +18°C° 0 mm 2 mps 662 mmHg 91%
    01:00 +18°C° 0 mm 2 mps 662 mmHg 90%
    02:00 +18°C° 0 mm 2 mps 662 mmHg 89%
    03:00 +18°C° 0 mm 2 mps 661 mmHg 88%
    04:00 +18°C° 0 mm 2 mps 662 mmHg 88%
    05:00 +18°C° 0 mm 2 mps 662 mmHg 87%
    06:00 +19°C° 0 mm 2 mps 662 mmHg 86%
    07:00 +20°C° 0 mm 2 mps 663 mmHg 78%
    08:00 +22°C° 0 mm 3 mps 664 mmHg 71%
    09:00 +24°C° 0 mm 3 mps 665 mmHg 63%
    10:00 +26°C° 0 mm 3 mps 665 mmHg 58%
    11:00 +28°C° 0 mm 3 mps 665 mmHg 52%
    12:00 +29°C° 0 mm 3 mps 665 mmHg 47%
    13:00 +28°C° 0 mm 2 mps 664 mmHg 51%
    14:00 +27°C° 0 mm 2 mps 663 mmHg 55%
    15:00 +27°C° 0 mm 2 mps 663 mmHg 59%
    16:00 +25°C° 0 mm 2 mps 662 mmHg 68%
    17:00 +23°C° 0 mm 2 mps 662 mmHg 78%
    18:00 +20°C° 0 mm 2 mps 662 mmHg 87%
    19:00 +20°C° 0 mm 2 mps 662 mmHg 87%
    20:00 +19°C° 0 mm 2 mps 663 mmHg 87%
    21:00 +19°C° 0 mm 2 mps 663 mmHg 87%
    22:00 +19°C° 0 mm 2 mps 663 mmHg 86%
    23:00 +19°C° 0 mm 2 mps 663 mmHg 85%
    Show more